This is the latest recevied weather packets stored in our database for station/object IW9CSJ-13. If no packets are shown the sender has not sent any weather packets the latest 1 day(s).
| Time | Temp. | Humidity | Pressure | Rain* | Wind** | Luminosity | Snow |
|---|---|---|---|---|---|---|---|
| 1777986319 | 17.78° C | 77% | 1015.4 hPa | 0 mm | 0.89 m/s, 88° | - | - |
| 1777986018 | 17.78° C | 77% | 1015.5 hPa | 0 mm | 0.89 m/s, 83° | - | - |
| 1777985722 | 17.78° C | 77% | 1015.6 hPa | 0 mm | 0.89 m/s, 103° | - | - |
| 1777985419 | 17.78° C | 77% | 1015.6 hPa | 0 mm | 0.89 m/s, 59° | - | - |
| 1777984522 | 17.78° C | 76% | 1015.6 hPa | 0 mm | 0.89 m/s, 47° | - | - |
| 1777984221 | 17.78° C | 76% | 1015.6 hPa | 0 mm | 0.89 m/s, 87° | - | - |
| 1777983919 | 17.78° C | 76% | 1015.8 hPa | 0 mm | 1.34 m/s, 54° | - | - |
| 1777983620 | 17.78° C | 75% | 1015.8 hPa | 0 mm | 0.89 m/s, 51° | - | - |
| 1777983320 | 17.78° C | 75% | 1015.8 hPa | 0 mm | 0.89 m/s, 51° | - | - |
| 1777983019 | 17.78° C | 75% | 1015.9 hPa | 0 mm | 1.79 m/s, 127° | - | - |
| 1777982719 | 17.78° C | 75% | 1015.9 hPa | 0 mm | 0.89 m/s, 103° | - | - |
| 1777982420 | 17.78° C | 75% | 1015.9 hPa | 0 mm | 0.89 m/s, 103° | - | - |
| 1777982121 | 18.33° C | 73% | 1015.9 hPa | 0 mm | 2.24 m/s, 127° | - | - |
| 1777981822 | 18.33° C | 74% | 1015.9 hPa | 0 mm | 1.34 m/s, 126° | - | - |
| 1777981520 | 18.33° C | 74% | 1016.1 hPa | 0 mm | 0.89 m/s, 100° | - | - |
| 1777981220 | 18.33° C | 74% | 1016.1 hPa | 0 mm | 0.89 m/s, 100° | - | - |
| 1777980920 | 18.33° C | 73% | 1016 hPa | 0 mm | 0.89 m/s, 67° | - | - |
| 1777980619 | 18.89° C | 72% | 1016 hPa | 0 mm | 1.34 m/s, 135° | - | - |
| 1777980319 | 18.89° C | 73% | 1016 hPa | 0 mm | 0.89 m/s, 73° | - | - |
| 1777980020 | 18.89° C | 73% | 1016.1 hPa | 0 mm | 1.34 m/s, 38° | - | - |
| 1777979721 | 18.89° C | 73% | 1016 hPa | 0 mm | 1.34 m/s, 144° | - | - |
| 1777979421 | 18.89° C | 73% | 1016 hPa | 0 mm | 1.79 m/s, 133° | - | - |
| 1777979122 | 18.89° C | 73% | 1016 hPa | 0 mm | 2.68 m/s, 138° | - | - |
| 1777978822 | 18.89° C | 73% | 1015.9 hPa | 0 mm | 1.34 m/s, 118° | - | - |
| 1777978521 | 18.89° C | 73% | 1015.9 hPa | 0 mm | 1.34 m/s, 118° | - | - |
* Rain latest hour (hover to see other rain measurements)
** Current wind speed in m/s (hover to see current wind gust speed)